Weather History for Elko, NV

Change the Weather History Date:

Sunday, November 13, 2011

  Actual Average Record
Temperature  
Mean Temperature 38 °F 36 °F  
Max Temperature 51 °F 49 °F 69 °F (1897)
Min Temperature 25 °F 22 °F -7 °F (1916)
Degree Days  
Heating Degree Days 27 29  
Month to date heating degree days 426 348  
Since 1 July heating degree days 1000 1177  
Cooling Degree Days 0 0  
Month to date cooling degree days 0 0  
Year to date cooling degree days 468 383  
Moisture  
Dew Point 28 °F    
Average Humidity 65    
Maximum Humidity 100    
Minimum Humidity 29    
Precipitation  
Precipitation 0.05 in 0.04 in 0.75 in (1903)
Month to date precipitation 0.30 0.47  
Year to date precipitation 7.28 8.07  
Snow  
Snow T in 0.10 in 3.40 in (1955)
Month to date snowfall 1.3 1.2  
Since 1 July snowfall 1.6 1.9  
Since 1 September snowfall 1.6 1.9  
Snow Depth 0.00 in    
Sea Level Pressure  
Sea Level Pressure 29.90 in    
Wind  
Wind Speed 8 mph (SW)    
Max Wind Speed 20 mph    
Max Gust Speed 25 mph    
Visibility 10 miles    
Events Rain    
T = Trace of Precipitation, MM = Missing Value Source: NWS Daily Summary

Daily Weather History Graph

Daily Weather History Graph

Search for Another Location

Airport:

Trip Planner

Search our weather history database for the weather conditions in past years. The results will help you decide how hot, cold, wet, or windy it might be!

Date:

Astronomy

Nov. 13, 2011 Rise Set
Actual Time 6:27 AM PST 4:26 PM PST
Civil Twilight 5:58 AM PST 4:55 PM PST
Nautical Twilight 5:25 AM PST 5:28 PM PST
Astronomical Twilight 4:52 AM PST 6:01 PM PST
Moon 6:38 PM PST (11/13) 9:04 AM PST (11/13)
Length of Visible Light 10h 57m
Length of Day
9h 59m
Waning Gibbous, 92% of the Moon is Illuminated
Nov 13
Waning Gibbous
Nov 18
Last Quarter
Nov 24
New
Dec 2
First Quarter
Dec 10
Full

Hourly Weather History & Observations

Time (PST) Temp. Windchill Dew Point Humidity Pressure Visibility Wind Dir Wind Speed Gust Speed Precip Events Conditions
12:56 AM 35.1 °F 28.6 °F 30.9 °F 85% 29.87 in 10.0 mi SW 8.1 mph - 0.00 in   Overcast
1:56 AM 34.0 °F 26.6 °F 32.0 °F 92% 29.86 in 8.0 mi SW 9.2 mph - 0.01 in Rain Light Rain
2:56 AM 34.0 °F 26.6 °F 33.1 °F 96% 29.87 in 4.0 mi WSW 9.2 mph - 0.02 in   Overcast
3:56 AM 34.0 °F 27.2 °F 34.0 °F 100% 29.87 in 9.0 mi WSW 8.1 mph - 0.02 in   Overcast
4:04 AM 35.6 °F 29.2 °F 33.8 °F 93% 29.85 in 9.0 mi WSW 8.1 mph - 0.00 in   Overcast
4:22 AM 35.6 °F 30.7 °F 33.8 °F 93% 29.86 in 10.0 mi WNW 5.8 mph - 0.00 in   Overcast
4:45 AM 35.6 °F 28.0 °F 33.8 °F 93% 29.87 in 10.0 mi WSW 10.4 mph - N/A   Overcast
4:56 AM 35.1 °F 26.9 °F 33.1 °F 92% 29.88 in 10.0 mi WSW 11.5 mph - 0.00 in   Overcast
5:40 AM 33.8 °F 30.8 °F 33.8 °F 100% 29.87 in 10.0 mi SSW 3.5 mph - N/A   Mostly Cloudy
6:40 AM 33.8 °F 27.7 °F 33.8 °F 100% 29.87 in 10.0 mi WSW 6.9 mph - N/A   Mostly Cloudy
6:56 AM 33.1 °F 26.9 °F 32.0 °F 96% 29.92 in 10.0 mi WSW 6.9 mph - N/A   Partly Cloudy
7:56 AM 36.0 °F - 33.1 °F 89% 29.93 in 10.0 mi Calm Calm - N/A   Mostly Cloudy
8:56 AM 42.1 °F 34.5 °F 36.0 °F 79% 29.92 in 10.0 mi SW 15.0 mph 18.4 mph N/A   Scattered Clouds
9:56 AM 43.0 °F 36.0 °F 34.0 °F 71% 29.94 in 10.0 mi SW 13.8 mph 19.6 mph N/A   Overcast
10:56 AM 45.0 °F 37.4 °F 34.0 °F 65% 29.90 in 10.0 mi WSW 18.4 mph 23.0 mph N/A   Clear
11:56 AM 46.9 °F - 30.9 °F 54% 29.90 in 10.0 mi SW 13.8 mph 23.0 mph N/A   Scattered Clouds
12:56 PM 48.0 °F - 30.0 °F 50% 29.88 in 10.0 mi SW 9.2 mph 17.3 mph N/A   Scattered Clouds
1:56 PM 50.0 °F - 21.9 °F 33% 29.88 in 10.0 mi West 15.0 mph 23.0 mph N/A   Clear
2:56 PM 50.0 °F - 19.4 °F 30% 29.90 in 10.0 mi West 13.8 mph - N/A   Clear
3:56 PM 43.0 °F 38.2 °F 21.9 °F 43% 29.91 in 10.0 mi SW 8.1 mph - N/A   Clear
4:56 PM 39.9 °F 37.8 °F 21.9 °F 49% 29.92 in 10.0 mi SSW 3.5 mph - N/A   Clear
5:56 PM 33.1 °F 27.7 °F 23.0 °F 66% 29.95 in 9.0 mi SSE 5.8 mph - N/A   Clear
6:56 PM 34.0 °F 29.8 °F 23.0 °F 64% 29.96 in 10.0 mi South 4.6 mph - N/A   Clear
7:56 PM 28.4 °F 21.2 °F 21.2 °F 74% 29.93 in 10.0 mi SW 6.9 mph - N/A   Clear
8:56 PM 30.9 °F - 21.0 °F 67% 29.96 in 10.0 mi Calm Calm - N/A   Clear
9:56 PM 30.0 °F - 21.0 °F 69% 29.95 in 10.0 mi Calm Calm - N/A   Clear
10:56 PM 25.0 °F - 19.0 °F 78% 29.95 in 10.0 mi Calm Calm - N/A   Mostly Cloudy
11:56 PM 28.0 °F - 21.0 °F 75% 29.93 in 10.0 mi Calm Calm - N/A   Clear